Regional Weather Roundup
Issued by NWS Tampa Bay Area, FL

Home | Current Version | Previous Version | Text Only | Print | Product List | Glossary On
Versions: 1 2 3 4 5 6 7 8 9 10 11 12 13 14 15 16 17 18 19 20 21 22 23 24 25 26 27
000
NZUS99 KTBW 010516
RWRTBW
Regional Weather Roundup National Weather Service Ruskin Florida
100 AM EDT SUN AUG 01 2021


CITY           SKY/WX    TMP DP  RH WIND       PRES   REMARKS
Cross City     CLEAR     77  76  98 CALM      30.03S
Williston      FAIR      78  76  91 SW3       30.04F
Gainesville    CLEAR     80  76  87 SW5       30.05F
Ocala          CLEAR     78  76  93 S5        30.05F
Inverness      FAIR      77  77 100 MISG      30.06S
Leesburg       CLEAR     83  76  79 SW3       30.06S
Orlando        PTCLDY    83  75  77 W7        30.05F
Brooksville    CLEAR     77  74  90 S3        30.07S
Zephyrhills    CLEAR     77  75  95 CALM      30.07F
Lakeland       CLEAR     79  73  83 SW3       30.08S
Winter Haven   CLEAR     81  74  79 SW5       30.08S
Bartow         FAIR      77  73  88 CALM      30.08S

CITY           SKY/WX    TMP DP  RH WIND       PRES   REMARKS
Tampa Intl     PTCLDY    85  77  77 W8        30.06S HX  95
Tampa Exec     CLEAR     79  77  94 CALM      30.07S
MacDill AFB    CLEAR     83  72  68 CALM      30.03F
Peter O Knight CLOUDY    82  77  83 SW3       30.06S
Plant City     CLEAR     79  79 100 CALM      30.09S
Clearwater     CLEAR     84  76  76 W6        30.06S
St Petersburg  PTCLDY    85  77  77 SW5       30.05S HX  95
Sarasota       PTCLDY    85  76  74 W5        30.05S
Sebring        FAIR      80  77  90 SW5       30.08S
Punta Gorda    CLEAR     82  78  88 CALM      30.08S
Ft Myers       CLEAR     83  78  85 CALM      30.06S
Ft Myers-RSW   CLEAR     80  75  84 CALM      30.07S
Naples         CLEAR     84  76  76 SE3       30.06F

STATION/POSITION SKY/WX   TEMP WIND        PRES    VSBY
                          AIR  DIR/SP/G
                          (F)  (DEG/KT/KT) (MB)    (MI)
Keaton Beach               85  260/ 14/ 15 1016.3F
Sand Key                   84  120/ 11/ 13 1018.4
039 Panama City            83  240/  4/  6 1017.2F
036 Bayport                84  250/ 10/ 12 1017.5R
003 Captiva                85  260/  4/  6 1017.1
Venice                     85  220/  6/  8 1017.8F
Cedar Key                  85  250/  8/ 12 1017.1F

CITY           SKY/WX    TMP DP  RH WIND       PRES   REMARKS
Tallahassee    MOCLDY    80  70  71 SE3       30.00F
Daytona Beach  CLEAR     80  74  81 W7        30.04S
Melbourne      MOCLDY    83  74  74 SW9       30.05F
W Palm Beach   CLEAR     83  74  74 S6        30.08F
Miami          PTCLDY    84  76  76 SE3       30.07F
Key West       PTCLDY    85  75  72 SE9       30.07F
San Juan, PR   PTCLDY    81  75  83 E9        30.09F
Cancun, MX     PTCLDY    84  77  79 E6        30.06F




USA.gov is the U.S. government's official web portal to all federal, state and local government web resources and services.